FW9226 Weather Reports


Display with metric or nautical units.
time (UTC)temp
F
wind
direction
speed
MPH
gust
MPH
rain 1hr
in
rain 24hr
in
rain mn
in
humidity
%
barometer
mb
20260510154006 72 132 0.0 3.0 0.00 0.00 0.00 46 1018.3
20260510153507 73 317 0.0 1.0 0.00 0.00 0.00 44 1018.3
20260510153007 73 321 0.0 0.0 0.00 0.00 0.00 47 1018.3
20260510152007 72 321 0.0 0.0 0.00 0.00 0.00 47 1018.1
20260510151005 70 321 0.0 0.0 0.00 0.00 0.00 45 1018.1
20260510150505 68 321 0.0 0.0 0.00 0.00 0.00 50 1018.1
20260510150008 67 321 0.0 0.0 0.00 0.00 0.00 56 1018.1
20260510145505 65 321 0.0 0.0 0.00 0.00 0.00 61 1018.1
20260510145008 63 322 0.0 2.0 0.00 0.00 0.00 61 1018.0
20260510144506 61 62 0.0 0.0 0.00 0.00 0.00 67 1018.0
20260510144005 60 62 0.0 0.0 0.00 0.00 0.00 68 1018.0
20260510143505 59 62 0.0 0.0 0.00 0.00 0.00 68 1018.0
20260510143009 59 62 0.0 0.0 0.00 0.00 0.00 68 1018.0
20260510142505 58 62 0.0 0.0 0.00 0.00 0.00 69 1017.9
20260510142006 58 62 0.0 0.0 0.00 0.00 0.00 64 1017.8
20260510141506 58 62 0.0 0.0 0.00 0.00 0.00 66 1017.8
20260510141006 58 62 0.0 0.0 0.00 0.00 0.00 65 1017.7
20260510140505 57 62 0.0 0.0 0.00 0.00 0.00 63 1017.7
20260510140006 57 62 0.0 0.0 0.00 0.00 0.00 63 1017.6
20260510134506 58 62 0.0 0.0 0.00 0.00 0.00 58 1017.4
20260510134005 59 62 0.0 0.0 0.00 0.00 0.00 54 1017.4
20260510133502 59 62 0.0 0.0 0.00 0.00 0.00 51 1017.3
20260510133006 59 62 0.0 0.0 0.00 0.00 0.00 51 1017.2
20260510132008 59 62 0.0 0.0 0.00 0.00 0.00 51 1017.1
20260510131506 58 62 0.0 0.0 0.00 0.00 0.00 51 1017.1
20260510131005 59 62 0.0 0.0 0.00 0.00 0.00 52 1017.1
20260510130505 59 62 0.0 0.0 0.00 0.00 0.00 52 1017.1
20260510130006 59 62 0.0 0.0 0.00 0.00 0.00 51 1017.1
20260510125505 59 62 0.0 0.0 0.00 0.00 0.00 50 1017.0
20260510125006 59 62 0.0 0.0 0.00 0.00 0.00 52 1017.1
20260510124505 59 62 0.0 0.0 0.00 0.00 0.00 53 1017.1
20260510124006 59 62 0.0 0.0 0.00 0.00 0.00 54 1017.1
20260510123504 58 62 0.0 0.0 0.00 0.00 0.00 56 1017.1
20260510123007 58 62 0.0 0.0 0.00 0.00 0.00 57 1017.2
20260510122007 57 337 0.0 0.0 0.00 0.00 0.00 63 1017.1
20260510121506 57 284 0.0 0.0 0.00 0.00 0.00 62 1017.1
20260510121006 57 284 0.0 0.0 0.00 0.00 0.00 64 1017.2
20260510120505 58 284 0.0 0.0 0.00 0.00 0.00 60 1017.2
20260510120010 58 284 0.0 0.0 0.00 0.00 0.00 60 1017.1
20260510115502 58 283 0.0 0.0 0.00 0.00 0.00 59 1017.1
20260510115005 58 283 0.0 0.0 0.00 0.00 0.00 61 1017.1
20260510114505 58 284 0.0 0.0 0.00 0.00 0.00 63 1017.1
20260510113504 59 283 0.0 0.0 0.00 0.00 0.00 62 1017.2
20260510113006 59 283 0.0 0.0 0.00 0.00 0.00 61 1017.1
20260510112505 59 284 0.0 0.0 0.00 0.00 0.00 60 1017.3
20260510112005 59 284 0.0 1.0 0.00 0.00 0.00 58 1017.3
20260510111504 60 284 0.0 1.0 0.00 0.00 0.00 57 1017.2
20260510111006 60 284 0.0 1.0 0.00 0.00 0.00 59 1017.3
20260510110504 60 284 0.0 1.0 0.00 0.00 0.00 58 1017.2
20260510110008 60 288 0.0 1.0 0.00 0.00 0.00 57 1017.4
20260510105005 60 290 0.0 1.0 0.00 0.00 0.00 59 1017.3
20260510104505 60 289 0.0 1.0 0.00 0.00 0.00 60 1017.3
20260510104005 60 288 0.0 1.0 0.00 0.00 0.00 60 1017.4
20260510103504 60 288 0.0 1.0 0.00 0.00 0.00 62 1017.4
20260510103005 60 321 0.0 0.0 0.00 0.00 0.00 62 1017.4
20260510102505 60 321 0.0 0.0 0.00 0.00 0.00 62 1017.5
20260510102004 59 322 0.0 1.0 0.00 0.00 0.00 62 1017.5
20260510101459 59 322 0.0 1.0 0.00 0.00 0.00 64 1017.4
20260510101005 58 78 0.0 0.0 0.00 0.00 0.00 65 1017.4
20260510100506 58 78 0.0 0.0 0.00 0.00 0.00 66 1017.5
20260510100001 59 78 0.0 0.0 0.00 0.00 0.00 66 1017.4
20260510095004 58 78 0.0 1.0 0.00 0.00 0.00 67 1017.5
20260510094505 58 78 0.0 0.0 0.00 0.00 0.00 67 1017.5
20260510094005 58 78 0.0 1.0 0.00 0.00 0.00 66 1017.6
20260510093500 58 78 0.0 1.0 0.00 0.00 0.00 67 1017.5
20260510093006 58 79 0.0 1.0 0.00 0.00 0.00 69 1017.6
20260510092505 57 79 0.0 0.0 0.00 0.00 0.00 70 1017.5
20260510092005 57 79 0.0 0.0 0.00 0.00 0.00 71 1017.5
20260510091458 57 79 0.0 0.0 0.00 0.00 0.00 70 1017.5
20260510091006 57 79 0.0 0.0 0.00 0.00 0.00 74 1017.4
20260510090004 57 79 0.0 0.0 0.00 0.00 0.00 76 1017.5
20260510085500 58 80 0.0 0.0 0.00 0.00 0.00 76 1017.6
20260510085001 58 79 0.0 0.0 0.00 0.00 0.00 77 1017.5
20260510084006 57 79 0.0 0.0 0.00 0.00 0.00 80 1017.5
20260510082505 58 79 0.0 1.0 0.00 0.00 0.00 82 1017.6
20260510082006 58 79 0.0 1.0 0.00 0.00 0.00 82 1017.6
20260510081504 58 79 0.0 0.0 0.00 0.00 0.00 82 1017.7
20260510081005 58 80 0.0 0.0 0.00 0.00 0.00 82 1017.7
20260510075959 58 79 0.0 0.0 0.00 0.00 0.00 83 1017.7
20260510075506 58 79 0.0 1.0 0.00 0.00 0.00 84 1017.7
20260510075004 58 80 0.0 1.0 0.00 0.00 0.00 84 1017.7
20260510074458 58 80 0.0 0.0 0.00 0.00 0.00 84 1017.7
20260510074005 58 79 0.0 0.0 0.00 0.00 0.00 85 1017.6
20260510073501 58 79 0.0 0.0 0.00 0.00 0.00 85 1017.7
20260510072000 59 79 0.0 0.0 0.00 0.00 0.00 83 1017.8
20260510071500 59 79 0.0 1.0 0.00 0.00 0.00 83 1017.7
20260510070504 58 79 0.0 0.0 0.00 0.00 0.00 84 1017.6
20260510065504 58 79 0.0 0.0 0.00 0.00 0.00 84 1017.7
20260510065005 58 80 0.0 0.0 0.00 0.00 0.00 84 1017.7
20260510063505 59 80 0.0 0.0 0.00 0.00 0.00 84 1017.6
20260510062005 59 79 0.0 1.0 0.00 0.00 0.00 83 1017.6
20260510060507 60 80 0.0 0.0 0.00 0.00 0.00 81 1017.7
20260510060006 60 79 0.0 0.0 0.00 0.00 0.00 79 1017.7
20260510055006 61 79 0.0 1.0 0.00 0.00 0.00 79 1017.7
20260510054505 61 79 0.0 1.0 0.00 0.00 0.00 79 1017.7
20260510054005 61 80 0.0 1.0 0.00 0.00 0.00 80 1017.6
20260510053006 60 80 0.0 1.0 0.00 0.00 0.00 80 1017.7
20260510052504 60 79 0.0 1.0 0.00 0.00 0.00 81 1017.8
20260510052007 60 79 0.0 1.0 0.00 0.00 0.00 82 1017.7
20260510051506 59 79 0.0 1.0 0.00 0.00 0.00 83 1017.8
20260510050506 59 79 0.0 1.0 0.00 0.00 0.00 83 1017.8
20260510050007 59 79 0.0 0.0 0.00 0.00 0.00 83 1017.8
20260510045005 59 79 0.0 0.0 0.00 0.00 0.00 82 1017.7
20260510044506 60 79 0.0 0.0 0.00 0.00 0.00 82 1017.7
20260510044005 59 79 0.0 0.0 0.00 0.00 0.00 82 1017.6
20260510043006 60 79 0.0 1.0 0.00 0.00 0.00 82 1017.7
20260510042506 60 79 0.0 0.0 0.00 0.00 0.00 82 1017.7
20260510042005 60 79 0.0 0.0 0.00 0.00 0.00 82 1017.6
20260510041506 60 79 0.0 0.0 0.00 0.00 0.00 81 1017.7
20260510041007 60 79 0.0 0.0 0.00 0.00 0.00 81 1017.6
20260510040505 60 79 0.0 0.0 0.00 0.00 0.00 80 1017.6
20260510040007 61 79 0.0 0.0 0.00 0.00 0.00 80 1017.5
20260510035505 61 79 0.0 0.0 0.00 0.00 0.00 79 1017.5
20260510035004 61 79 0.0 0.0 0.00 0.00 0.00 78 1017.5
20260510034506 61 79 0.0 0.0 0.00 0.00 0.00 78 1017.4
20260510033502 62 79 0.0 0.0 0.00 0.00 0.00 78 1017.5
20260510033007 62 79 0.0 0.0 0.00 0.00 0.00 77 1017.5
20260510032504 62 79 0.0 0.0 0.00 0.00 0.00 76 1017.4
20260510032006 63 79 0.0 0.0 0.00 0.00 0.00 76 1017.4
20260510031506 63 79 0.0 0.0 0.00 0.00 0.00 75 1017.4
20260510031005 64 79 0.0 0.0 0.00 0.00 0.00 73 1017.4
20260510030503 64 79 0.0 1.0 0.00 0.00 0.00 72 1017.4
20260510025504 65 84 0.0 2.0 0.00 0.00 0.00 71 1017.5
20260510025005 65 107 0.0 1.0 0.00 0.00 0.00 71 1017.4
20260510024505 65 99 0.0 2.0 0.00 0.00 0.00 70 1017.4
20260510024006 66 154 0.0 3.0 0.00 0.00 0.00 69 1017.4
20260510023505 66 49 0.0 3.0 0.00 0.00 0.00 69 1017.4
20260510023006 66 102 0.0 2.0 0.00 0.00 0.00 68 1017.2
20260510022505 67 104 0.0 2.0 0.00 0.00 0.00 68 1017.2
20260510022004 67 68 1.0 5.0 0.00 0.00 0.00 67 1017.1
20260510021005 67 63 0.0 4.0 0.00 0.00 0.00 65 1017.0
20260510020505 68 87 0.0 4.0 0.00 0.00 0.00 65 1017.1
20260510020006 68 99 0.0 4.0 0.00 0.00 0.00 64 1017.0
20260510015005 68 67 0.0 3.0 0.00 0.00 0.00 63 1017.0
20260510014506 69 96 1.0 4.0 0.00 0.00 0.00 61 1017.0
20260510014006 69 79 0.0 4.0 0.00 0.00 0.00 60 1017.1
20260510013506 69 323 0.0 1.0 0.00 0.00 0.00 60 1016.9
20260510013007 69 134 0.0 2.0 0.00 0.00 0.00 60 1016.9
20260510012505 70 96 1.0 4.0 0.00 0.00 0.00 60 1016.9
20260510012006 70 141 1.0 4.0 0.00 0.00 0.00 58 1017.0
20260510011506 70 124 1.0 4.0 0.00 0.00 0.00 58 1017.1
20260510011006 70 64 0.0 4.0 0.00 0.00 0.00 57 1017.1
20260510010505 70 91 0.0 3.0 0.00 0.00 0.00 57 1017.1
20260510010006 71 148 1.0 6.0 0.00 0.00 0.00 57 1017.1
20260510005505 71 229 2.0 6.0 0.00 0.00 0.00 56 1017.1
20260510005006 71 75 1.0 5.0 0.00 0.00 0.00 56 1017.1
20260510004506 71 165 2.0 6.0 0.00 0.00 0.00 55 1017.2
20260510004008 72 46 1.0 6.0 0.00 0.00 0.00 54 1017.1
20260510003504 72 87 1.0 4.0 0.00 0.00 0.00 54 1017.1
20260510002506 72 103 2.0 8.0 0.00 0.00 0.00 53 1017.2
20260510002008 72 279 1.0 5.0 0.00 0.00 0.00 53 1017.3
20260510001505 73 46 2.0 8.0 0.00 0.00 0.00 52 1017.1
20260510001008 73 64 2.0 8.0 0.00 0.00 0.00 51 1017.1
20260510000505 74 53 1.0 7.0 0.00 0.00 0.00 50 1017.2
20260509235507 75 122 1.0 6.0 0.00 0.00 0.00 49 1017.3
20260509235005 76 45 1.0 6.0 0.00 0.00 0.00 47 1017.3
20260509234505 77 78 1.0 6.0 0.00 0.00 0.00 47 1017.2
20260509234006 77 125 1.0 8.0 0.00 0.00 0.00 46 1017.2
20260509233506 78 110 1.0 8.0 0.00 0.00 0.00 45 1017.3
20260509233006 78 82 1.0 7.0 0.00 0.00 0.00 45 1017.3
20260509232506 79 79 1.0 4.0 0.00 0.00 0.00 44 1017.2
20260509231505 79 138 1.0 5.0 0.00 0.00 0.00 45 1017.3
20260509231005 79 155 1.0 5.0 0.00 0.00 0.00 45 1017.3
20260509230505 78 219 2.0 10.0 0.00 0.00 0.00 46 1017.4
20260509230007 77 98 3.0 10.0 0.00 0.00 0.00 46 1017.4
20260509225505 78 252 2.0 9.0 0.00 0.00 0.00 47 1017.5
20260509225005 78 243 2.0 6.0 0.00 0.00 0.00 47 1017.5
20260509223505 79 103 2.0 8.0 0.00 0.00 0.00 45 1017.6
20260509223007 78 82 2.0 5.0 0.00 0.00 0.00 47 1017.7
20260509222506 78 79 2.0 6.0 0.00 0.00 0.00 46 1017.7
20260509222005 77 302 2.0 6.0 0.00 0.00 0.00 46 1017.7
20260509221505 79 136 2.0 6.0 0.00 0.00 0.00 44 1017.8
20260509220506 79 101 2.0 7.0 0.00 0.00 0.00 47 1017.8
20260509220013 79 84 2.0 7.0 0.00 0.00 0.00 45 1017.8
20260509215459 79 139 2.0 7.0 0.00 0.00 0.00 46 1017.8
20260509215005 78 155 2.0 7.0 0.00 0.00 0.00 47 1017.8
20260509214505 79 292 2.0 6.0 0.00 0.00 0.00 47 1017.8
20260509214006 80 82 2.0 4.0 0.00 0.00 0.00 46 1017.8
20260509213005 79 258 1.0 4.0 0.00 0.00 0.00 46 1017.7
20260509212506 79 354 1.0 6.0 0.00 0.00 0.00 45 1017.9
20260509212005 79 234 2.0 6.0 0.00 0.00 0.00 43 1017.8
20260509211505 79 113 2.0 5.0 0.00 0.00 0.00 43 1017.9
20260509210504 81 122 1.0 6.0 0.00 0.00 0.00 40 1018.1
20260509210006 80 278 2.0 7.0 0.00 0.00 0.00 42 1018.3
20260509205505 79 227 2.0 7.0 0.00 0.00 0.00 42 1018.1
20260509205005 79 113 2.0 7.0 0.00 0.00 0.00 40 1018.1
20260509204505 80 115 1.0 4.0 0.00 0.00 0.00 40 1018.2
20260509204007 79 94 2.0 5.0 0.00 0.00 0.00 40 1018.2
20260509203505 78 41 2.0 5.0 0.00 0.00 0.00 41 1018.2
20260509203005 79 264 2.0 6.0 0.00 0.00 0.00 41 1018.3
20260509202506 79 143 2.0 6.0 0.00 0.00 0.00 41 1018.3
20260509202006 79 77 2.0 5.0 0.00 0.00 0.00 39 1018.1
20260509201505 79 201 2.0 6.0 0.00 0.00 0.00 41 1018.2
20260509201005 77 297 2.0 6.0 0.00 0.00 0.00 43 1018.3
20260509200500 78 79 1.0 6.0 0.00 0.00 0.00 40 1018.3
20260509200007 79 318 1.0 3.0 0.00 0.00 0.00 43 1018.2
20260509195006 76 102 1.0 5.0 0.00 0.00 0.00 43 1018.3
20260509194500 77 243 2.0 8.0 0.00 0.00 0.00 43 1018.3
20260509193504 77 65 1.0 5.0 0.00 0.00 0.00 43 1018.4
20260509193006 78 274 1.0 5.0 0.00 0.00 0.00 42 1018.5
20260509192504 76 124 1.0 5.0 0.00 0.00 0.00 44 1018.5
20260509191500 77 296 2.0 6.0 0.00 0.00 0.00 43 1018.6
20260509191005 77 102 2.0 6.0 0.00 0.00 0.00 43 1018.6
20260509190500 77 158 1.0 5.0 0.00 0.00 0.00 42 1018.5
20260509185505 76 71 1.0 4.0 0.00 0.00 0.00 42 1018.6
20260509185005 77 221 1.0 4.0 0.00 0.00 0.00 41 1018.6
20260509184505 77 197 1.0 5.0 0.00 0.00 0.00 45 1018.6
20260509184006 77 60 1.0 3.0 0.00 0.00 0.00 42 1018.6
20260509183504 76 118 1.0 4.0 0.00 0.00 0.00 41 1018.6
20260509182505 76 198 2.0 5.0 0.00 0.00 0.00 40 1018.6
20260509182004 77 124 2.0 7.0 0.00 0.00 0.00 39 1018.5
20260509181505 77 153 1.0 7.0 0.00 0.00 0.00 40 1018.5
20260509180504 76 236 1.0 4.0 0.00 0.00 0.00 38 1018.5
20260509180009 76 234 1.0 5.0 0.00 0.00 0.00 36 1018.5
20260509175504 76 230 1.0 4.0 0.00 0.00 0.00 37 1018.5
20260509175007 76 156 1.0 4.0 0.00 0.00 0.00 39 1018.5
20260509174509 76 180 1.0 6.0 0.00 0.00 0.00 40 1018.6
20260509173505 74 153 2.0 6.0 0.00 0.00 0.00 39 1018.6
20260509173006 74 81 2.0 6.0 0.00 0.00 0.00 41 1018.5
20260509172505 74 131 1.0 4.0 0.00 0.00 0.00 43 1018.5
20260509172005 74 127 1.0 5.0 0.00 0.00 0.00 41 1018.4
20260509171505 74 253 1.0 5.0 0.00 0.00 0.00 41 1018.3
20260509170505 73 236 1.0 4.0 0.00 0.00 0.00 42 1018.3
20260509170006 73 132 2.0 4.0 0.00 0.00 0.00 42 1018.2
20260509165505 73 207 2.0 4.0 0.00 0.00 0.00 43 1018.3
20260509165005 73 143 1.0 4.0 0.00 0.00 0.00 41 1018.2
20260509164005 72 248 1.0 3.0 0.00 0.00 0.00 44 1018.4
20260509163007 72 234 1.0 3.0 0.00 0.00 0.00 40 1018.3
20260509161505 71 139 2.0 4.0 0.00 0.00 0.00 42 1018.3
20260509161005 70 170 1.0 4.0 0.00 0.00 0.00 43 1018.2
20260509160508 70 137 1.0 3.0 0.00 0.00 0.00 43 1018.1
20260509160008 69 191 1.0 3.0 0.00 0.00 0.00 43 1018.1
20260509155506 69 129 1.0 3.0 0.00 0.00 0.00 46 1018.1
20260509155007 68 213 1.0 3.0 0.00 0.00 0.00 46 1018.2
20260509154507 68 141 1.0 3.0 0.00 0.00 0.00 47 1018.2